Location: ????
(41.1453°N, 22.9712°E)
Time: 10:46:54
(UTC+00:00)

Daily predictions for brighter satellites

Satellite Brightness Start Highest point End
(mag) Time Altitude Azimuth Time Altitude Azimuth Time Altitude Azimuth
RESURS DK-1 3.5 15:32:13 10° N 15:35:25 22° NE 15:38:35 10° ESE
Cosmos 1782 Rocket 3.6 15:31:37 10° S 15:36:02 87° E 15:40:29 10° N
Cosmos 1300 Rocket 3.8 15:35:57 10° SSW 15:40:20 75° W 15:44:43 10° N
ISS -3.4 15:37:19 10° WSW 15:40:37 60° NNW 15:43:56 10° NE
Cosmos 1869 3.6 15:37:40 10° SSE 15:40:55 36° E 15:44:11 10° NNE
CZ-2D R/B 3.4 15:38:41 10° SE 15:41:34 34° ENE 15:44:27 10° N
SJ-12 4.1 15:42:28 10° SE 15:46:04 42° ENE 15:49:39 10° N
IGS 5A 3.6 15:42:19 10° S 15:46:18 76° W 15:50:18 10° NNW
COSMO-SKYMED 1 4.1 15:46:03 10° NE 15:48:33 15° E 15:51:02 10° SE
Cosmos 540 Rocket 3.9 15:46:31 10° N 15:51:19 38° ENE 15:56:03 10° SE
Cosmos 1400 Rocket 4.2 15:51:54 10° SE 15:54:24 17° E 15:56:32 11° NE
CORIOLIS 4.2 15:50:40 10° SSE 15:56:02 89° ENE 16:01:25 10° NNW
Cosmos 1763 Rocket 3.6 15:51:34 10° N 15:56:39 51° ENE 16:01:37 10° SE
Cosmos 1975 Rocket 3.0 15:53:21 10° N 15:57:43 79° E 16:02:06 10° S
Cosmos 1140 Rocket 4.4 15:54:07 10° SW 15:59:08 51° WNW 16:04:11 10° N
IRS-1C 4.1 15:56:05 10° SSE 16:01:22 77° ENE 16:06:42 10° N
OAO 2 Rocket 4.2 15:57:18 10° WSW 16:02:00 42° S 16:06:48 10° ESE
Cosmos 2151 Rocket 4.5 15:58:26 10° SSE 16:02:16 29° E 16:06:07 10° NNE
SMAP 3.2 15:57:54 10° SSE 16:02:33 83° WSW 16:07:14 10° NNW
Cosmos 1812 2.4 15:59:53 10° SSE 16:02:36 38° E 16:05:21 10° NNE
Cosmos 44 Rocket 3.2 15:58:40 10° SSW 16:03:22 73° ESE 16:08:15 10° NE
OAO 3 Rocket 4.2 16:00:31 10° WSW 16:04:49 37° S 16:08:48 11° ESE
Cosmos 1943 Rocket 2.1 15:59:42 10° SSW 16:05:19 81° ESE 16:10:55 10° NNE
Cosmos 2058 3.4 16:05:39 10° NNE 16:09:16 33° ENE 16:12:52 10° SE
Okean 1 Rocket 4.2 16:08:58 10° SE 16:12:26 23° E 16:14:36 16° NE
Aureole 3 Rocket 2.1 16:09:53 10° S 16:12:54 59° E 16:15:58 10° NNE
Cosmos 2082 Rocket 2.7 16:07:59 10° N 16:13:10 37° ENE 16:18:18 10° SE
Cosmos 2278 Rocket 2.2 16:08:05 10° SSW 16:13:45 89° ESE 16:19:26 10° NNE
CZ-2D R/B 4.0 16:10:23 10° SE 16:14:07 34° ENE 16:17:55 10° N
SKYMED 2 3.9 16:10:22 10° NNE 16:14:33 45° E 16:18:41 10° S
Landsat 7 3.8 16:10:22 10° SSE 16:15:01 86° WSW 16:19:42 10° NNW
PSLV R/B 4.4 16:12:11 10° ESE 16:15:30 25° ENE 16:18:47 10° NNE
Helios 1A Rocket 3.2 16:18:18 23° ENE 16:19:35 30° E 16:22:37 10° SSE
Cosmos 1513 Rocket 4.5 16:14:57 10° S 16:21:15 76° E 16:27:39 10° N
SL-16 R/B 4.3 16:17:42 10° N 16:23:00 30° WNW 16:28:17 10° WSW
Cosmos 2369 Rocket 4.1 16:22:11 10° ESE 16:22:29 11° ESE 16:22:29 11° ESE
Cosmos 2251 Rocket 3.4 16:20:50 10° SSW 16:26:04 76° ESE 16:31:24 10° NNE
SL-19 R/B 4.4 16:25:53 10° SE 16:30:46 43° ENE 16:35:40 10° N
H-2A R/B 4.0 16:29:02 10° WSW 16:30:55 12° SW 16:32:15 10° SSW
Cosmos 371 Rocket 3.6 16:27:12 10° S 16:31:43 43° ESE 16:34:20 23° NE
YAOGAN 1 2.9 16:28:38 10° SE 16:32:37 41° ENE 16:36:37 10° N
Cosmos 304 Rocket 4.0 16:28:29 10° S 16:32:59 46° ESE 16:35:37 23° NE
Cosmos 841 Rocket 4.2 16:31:33 10° N 16:36:11 30° ENE 16:37:11 28° E
SJ 16-02 1.2 16:32:05 10° S 16:36:19 63° ESE 16:39:06 21° NNE
ATLAS 2AS CENTAUR R/B 4.0 16:32:24 10° NNW 16:36:57 18° NNE 16:38:09 18° NE
Nadezhda 4 Rocket 4.0 16:31:26 10° N 16:37:37 57° E 16:43:41 10° SSE
ARIANE 5 R/B 3.8 16:39:18 10° S 16:43:57 41° W 16:48:40 10° NNW
Resurs 1-3 3.6 16:40:14 10° SSE 16:44:23 52° ENE 16:48:34 10° N
Cosmos 1656 Rocket 4.0 16:40:23 10° S 16:45:30 41° ESE 16:47:09 33° ENE
COSMOS 2406 3.7 16:40:29 10° N 16:45:44 37° ENE 16:47:01 33° E
Cosmos 468 Rocket 3.8 16:44:39 10° NNW 16:49:52 82° ENE 16:55:00 10° SSE
USA 215 3.6 16:43:36 10° SE 16:50:05 66° SW 16:56:36 10° NW
Cosmos 1862 2.9 16:46:29 10° N 16:50:07 74° E 16:53:45 10° SSE
MOS 1 Rocket 4.0 16:52:47 10° S 16:56:57 50° W 17:01:16 10° NNW
Okean 2 Rocket 2.9 16:52:36 10° S 16:57:00 89° E 17:00:34 15° N
Cosmos 1190 Rocket 4.3 16:51:57 10° SSW 16:57:12 68° WNW 17:02:13 11° NNE
Cosmos 1428 Rocket 4.4 16:51:06 10° N 16:57:22 67° E 17:03:37 10° SSE
Cosmos 489 Rocket 4.4 16:53:06 10° NNW 16:59:19 65° ENE 17:05:28 10° SSE
Cosmos 1536 Rocket 3.5 16:55:07 10° N 16:59:33 87° W 17:03:57 10° S
H-II Stage 2 4.2 16:48:13 10° WSW 16:59:59 28° SSW 17:02:48 16° SSE
Cosmos 676 Rocket 3.9 16:54:47 10° SSW 17:00:05 78° ESE 17:03:00 27° NNE
ATLAS 5 CENTAUR R/B 4.4 17:00:45 10° WNW 17:04:37 23° WSW 17:09:06 10° SSW
Meteor 2-3 Rocket 3.8 17:00:03 10° N 17:05:36 53° ENE 17:07:28 37° SE
Cosmos 1954 Rocket 4.4 17:04:59 10° SSW 17:10:12 64° WNW 17:14:07 18° N
RESURS DK-1 4.2 17:09:20 10° NW 17:12:50 30° WSW 17:16:20 10° S
USA 281 3.9 17:15:07 34° NE 17:15:07 34° NE 17:20:05 10° N
SPOT 1/Viking Rocket 4.3 17:10:49 10° S 17:15:50 53° W 17:20:55 10° NNW
BlueWalker 3 3.3 17:12:33 10° SSW 17:14:33 29° SSW 17:14:33 29° SSW
ISS -1.3 17:15:36 10° WNW 17:17:12 16° NNW 17:17:12 16° NNW
Cosmos 968 Rocket 4.1 17:17:11 10° S 17:20:39 41° SSE 17:20:39 41° SSE
Cosmos 1634 Rocket 4.0 17:17:05 10° S 17:22:50 57° ESE 17:22:50 57° ESE
COSMO-SKYMED 1 3.6 17:21:26 19° N 17:24:03 41° WNW 17:27:55 10° SW
DELTA 2 R/B (1) 4.0 17:22:34 10° SW 17:27:39 48° SSE 17:27:39 48° SSE
BREEZE-M DEB (TANK) 4.0 17:29:28 10° WNW 17:32:21 35° N 17:32:21 35° N
Cosmos 2034 Rocket 4.4 17:29:39 10° SSW 17:35:45 62° W 17:41:58 10° N
Cosmos 1092 Rocket 4.0 17:48:11 10° N 17:54:25 76° W 17:54:59 70° SW
Cosmos 2082 Rocket 3.8 17:52:12 10° NW 17:57:05 31° WSW 18:01:58 10° SSW
Cosmos 2026 Rocket 4.4 17:54:53 10° NNW 18:00:51 58° W 18:06:52 10° S
Cosmos 2369 Rocket 3.8 18:02:06 10° SSW 18:04:20 25° SSW 18:04:20 25° SSW
BREEZE-M DEB (TANK) 4.4 17:59:12 10° WNW 18:07:58 59° W 18:07:58 59° W
SJ 16-02 4.2 18:12:57 10° W 18:14:54 13° WNW 18:15:42 12° NW
ATLAS 2AS CENTAUR R/B 4.0 18:22:26 10° NNW 18:25:35 29° NNW 18:25:35 29° NNW
Cosmos 2344 4.2 18:39:04 10° NW 18:47:30 69° WSW 18:47:32 69° WSW
